Location: Ch�tillon
(48.8024°N, 2.2935°E)
Time: 20:25:16
(UTC+00:00)

ITUPSAT 1 - Visible Passes

Search period start: 27 June 2022 00:00
Search period end: 07 July 2022 00:00
Orbit: 700 x 712 km, 98.6° (Epoch: 27 June)

Date Brightness Start Highest point End Pass type
(mag) Time Alt. Az. Time Alt. Az. Time Alt. Az.
27 Jun ? 21:13:29 10° N 21:17:53 38° WNW 21:22:16 10° SW visible
28 Jun ? 21:58:13 10° NNW 22:01:20 18° WNW 22:04:27 10° W visible
29 Jun ? 21:03:18 10° N 21:07:53 46° WNW 21:12:26 10° SW visible
30 Jun ? 21:47:51 10° NNW 21:51:23 21° WNW 21:54:55 10° WSW visible
01 Jul ? 20:53:09 10° N 20:57:51 56° WNW 21:02:31 10° SSW visible
02 Jul ? 21:37:32 10° N 21:41:25 25° WNW 21:45:18 10° WSW visible
03 Jul ? 20:43:01 10° N 20:47:48 70° WNW 20:52:34 10° SSW visible
03 Jul ? 22:23:00 10° NNW 22:24:44 12° NW 22:26:27 10° WNW visible
04 Jul ? 21:27:17 10° N 21:31:26 30° WNW 21:35:35 10° WSW visible
05 Jul ? 20:32:55 10° NNE 20:37:45 85° WNW 20:42:33 10° SSW visible
05 Jul ? 22:12:18 10° NNW 22:14:49 14° NW 22:17:19 10° W visible
06 Jul ? 21:17:04 10° N 21:21:27 36° WNW 21:25:48 10° SW visible
